Oceana NAS, VA

10:51 AM EDT on April 25, 2017 (GMT -0400)
Oceana Naval Air Station

Weather History for KNTU - November, 2011

Change the Weather History Date:

Friday, November 4, 2011

  Actual Average Record
Temperature  
Mean Temperature 54 °F -  
Max Temperature 63 °F 61 °F 79 °F (2003)
Min Temperature 45 °F 44 °F 32 °F (1996)
Degree Days  
Heating Degree Days 12    
Growing Degree Days 4 (Base 50)    
Moisture  
Dew Point 46 °F    
Average Humidity 79    
Maximum Humidity 97    
Minimum Humidity 48    
Precipitation  
Precipitation 0.01 in - - ()
Sea Level Pressure  
Sea Level Pressure 29.90 in    
Wind  
Wind Speed 10 mph (NNE)    
Max Wind Speed 34 mph    
Max Gust Speed 47 mph    
Visibility 10 miles    
Events Rain    
Averages and records for this station are not official NWS values.
T = Trace of Precipitation, MM = Missing Value Source: NWS Daily Summary

Daily Weather History Graph

Daily Weather History Graph

Search for Another Location

Airport or City:

Trip Planner

Search our weather history database for the weather conditions in past years. The results will help you decide how hot, cold, wet, or windy it might be!

Date:

Astronomy

Nov. 04, 2011 Rise Set
Actual Time 7:30 AM EDT 6:04 PM EDT
Civil Twilight 7:03 AM EDT 6:31 PM EDT
Nautical Twilight 6:32 AM EDT 7:01 PM EDT
Astronomical Twilight 6:02 AM EDT 7:32 PM EDT
Moon 2:47 PM EDT (11/4) 1:48 AM EDT (11/4)
Length of Visible Light 11h 27m
Length of Day
10h 33m
Waxing Gibbous, 69% of the Moon is Illuminated
Nov 4
Waxing Gibbous
Nov 10
Full
Nov 18
Last Quarter
Nov 25
New
Dec 2
First Quarter

Hourly Weather History & Observations

Time (EDT) Temp. Windchill Dew Point Humidity Pressure Visibility Wind Dir Wind Speed Gust Speed Precip Events Conditions
12:56 AM 48.9 °F - 46.9 °F 93% 29.94 in 10.0 mi WSW 3.5 mph - N/A   Clear
1:56 AM 48.0 °F - 46.0 °F 93% 29.94 in 10.0 mi Calm Calm - N/A   Partly Cloudy
2:56 AM 46.0 °F - 44.1 °F 93% 29.91 in 10.0 mi Calm Calm - N/A   Mostly Cloudy
3:56 AM 45.0 °F 42.6 °F 44.1 °F 97% 29.89 in 10.0 mi ESE 4.6 mph - N/A   Scattered Clouds
4:56 AM 45.0 °F 43.5 °F 44.1 °F 97% 29.88 in 10.0 mi North 3.5 mph - N/A   Mostly Cloudy
5:56 AM 48.9 °F - 46.9 °F 93% 29.87 in 10.0 mi Calm Calm - N/A   Mostly Cloudy
6:48 AM 50.0 °F - 48.2 °F 94% 29.84 in 10.0 mi Calm Calm - 0.00 in Rain Light Rain
6:56 AM 50.0 °F - 48.9 °F 96% 29.85 in 10.0 mi NNW 3.5 mph - 0.00 in Rain Light Rain
7:03 AM 50.0 °F - 48.2 °F 94% 29.85 in 10.0 mi NNW 4.6 mph - 0.00 in   Mostly Cloudy
7:56 AM 54.0 °F - 50.0 °F 86% 29.88 in 10.0 mi North 9.2 mph - 0.00 in   Mostly Cloudy
8:16 AM 53.6 °F - 48.2 °F 82% 29.88 in 10.0 mi North 10.4 mph - 0.00 in Rain Light Rain
8:49 AM 53.6 °F - 48.2 °F 82% 29.87 in 10.0 mi North 9.2 mph - 0.01 in   Overcast
8:56 AM 54.0 °F - 48.9 °F 83% 29.88 in 10.0 mi North 13.8 mph 18.4 mph 0.01 in   Overcast
9:23 AM 53.6 °F - 48.2 °F 82% 29.88 in 10.0 mi North 11.5 mph - 0.00 in Rain Light Rain
9:56 AM 54.0 °F - 48.0 °F 80% 29.89 in 10.0 mi NNE 10.4 mph - 0.00 in Rain Light Rain
10:36 AM 55.4 °F - 48.2 °F 77% 29.84 in 10.0 mi NE 15.0 mph 19.6 mph 0.00 in   Overcast
10:56 AM 55.9 °F - 48.9 °F 77% 29.84 in 10.0 mi NE 13.8 mph 26.5 mph 0.00 in   Mostly Cloudy
11:56 AM 59.0 °F - 48.0 °F 67% 29.85 in 10.0 mi NE 18.4 mph 25.3 mph N/A   Mostly Cloudy
12:56 PM 62.1 °F - 48.9 °F 62% 29.83 in 10.0 mi NE 20.7 mph 31.1 mph N/A   Mostly Cloudy
1:56 PM 59.0 °F - 51.1 °F 75% 29.83 in 10.0 mi NNE 26.5 mph 35.7 mph N/A   Mostly Cloudy
2:56 PM 59.0 °F - 52.0 °F 78% 29.86 in 10.0 mi NNE 20.7 mph 28.8 mph N/A   Overcast
3:56 PM 57.0 °F - 51.1 °F 81% 29.85 in 10.0 mi NNE 20.7 mph 31.1 mph N/A   Mostly Cloudy
4:56 PM 57.9 °F - 48.9 °F 72% 29.86 in 10.0 mi NE 23.0 mph 34.5 mph N/A   Mostly Cloudy
5:56 PM 57.0 °F - 48.9 °F 74% 29.91 in 10.0 mi NNE 26.5 mph 35.7 mph N/A   Overcast
6:56 PM 55.9 °F - 46.9 °F 72% 29.94 in 10.0 mi NNE 33.4 mph 43.7 mph N/A   Overcast
7:56 PM 55.0 °F - 44.1 °F 67% 29.98 in 10.0 mi NNE 32.2 mph 42.6 mph N/A   Overcast
8:56 PM 54.0 °F - 41.0 °F 62% 30.02 in 10.0 mi NNE 33.4 mph 44.9 mph N/A   Overcast
9:56 PM 54.0 °F - 36.0 °F 51% 30.06 in 10.0 mi NNE 34.5 mph 43.7 mph N/A   Mostly Cloudy
10:56 PM 53.1 °F - 34.0 °F 48% 30.07 in 10.0 mi NNE 34.5 mph 47.2 mph N/A   Mostly Cloudy
11:56 PM 52.0 °F - 36.0 °F 54% 30.07 in 10.0 mi NNE 26.5 mph 38.0 mph N/A   Mostly Cloudy